021  
ASUS44 KMEG 181210  
RWRTN  
TENNESSEE HOURLY STATE WEATHER ROUNDUP  
NATIONAL WEATHER SERVICE MEMPHIS TN  
700 AM CDT WED JUL 18 2018  
 
TNZ002-004-019-021-049-052-054-088>092-181300-  
WEST TENNESSEE  
 
CITY SKY/WX TMP DP RH WIND PRES REMARKS
 
MEMPHIS INTL PTSUNNY 81 71 71 S3 30.00R  
NWS MEMPHIS N/A 76 N/A N/A MISG N/A  
JACKSON FAIR 77 75 93 CALM 30.01R  
DYERSBURG FAIR 77 73 87 E5 30.02R  
SOMERVILLE SUNNY 75 75 100 CALM 30.00R  
COVINGTON SUNNY 77 75 94 CALM 30.01R  
PARIS SUNNY 72 70 94 NE6 30.03R  
HUNTINGDON SUNNY 73 72 94 CALM 30.02R  
LEXINGTON SUNNY 73 72 94 CALM 30.02R  
SELMER SUNNY 75 73 94 NE3 30.01R  
SAVANNAH SUNNY 72 72 100 CALM 30.01R  

 
 
TNZ008-025-027-028-033-062-065-066-181300-  
NORTH MIDDLE TENNESSEE  
 
CITY SKY/WX TMP DP RH WIND PRES REMARKS
 
NASHVILLE PTSUNNY 75 64 68 CALM 30.03R  
DICKSON SUNNY 72 68 88 CALM 30.04R  
PORTLAND SUNNY 70 66 88 N5 30.04R  
CLARKSVILLE FAIR 73 65 75 NE5 30.03S  
LEBANON SUNNY 72 66 83 CALM 30.02R  
SMYRNA FAIR 72 67 84 NW3 30.04R  
MURFREESBORO SUNNY 73 68 83 CALM 30.01S  
COOKEVILLE SUNNY 72 70 94 CALM 30.04R  
LIVINGSTON SUNNY 70 64 83 NE3 30.05R  
CROSSVILLE FAIR 70 64 81 NE5 30.09R  
ROCKWOOD SUNNY 72 68 88 CALM 30.06R  

 
 
TNZ061-075-076-078-094-096-097-181300-  
SOUTH MIDDLE TENNESSEE  
 
CITY SKY/WX TMP DP RH WIND PRES REMARKS
 
LEWISBURG SUNNY 73 70 88 CALM 30.02R  
FAYETTEVILLE SUNNY 72 72 100 N5 30.02R FOG  
TULLAHOMA CLOUDY 72 N/A N/A CALM 30.03R HAZE  
WINCHESTER SUNNY 70 70 100 CALM 30.03R  
MCMINNVILLE FOG 72 72 100 CALM 30.03S VSB 0  
COLUMBIA SUNNY 73 73 100 CALM 30.01R  
SHELBYVILLE SUNNY 72 70 94 CALM 30.03R FOG  

 
 
TNZ017-018-042-046-047-181300-  
NORTHEAST TENNESSEE  
 
CITY SKY/WX TMP DP RH WIND PRES REMARKS
 
TRI CITIES FOG 67 67 100 CALM 30.07R VSB 1/4  
ELIZABETHTON PTSUNNY 70 68 94 CALM 30.06S  
GREENEVILLE MOSUNNY 68 66 94 CALM 30.06S FOG  

 
 
TNZ012-013-036-069-073-074-181300-  
CENTRAL EAST TENNESSEE  
 
CITY SKY/WX TMP DP RH WIND PRES REMARKS
 
KNOXVILLE PTSUNNY 74 71 91 NE7 30.02R  
OAK RIDGE FAIR 73 71 93 CALM 30.04R  
DOWNTOWN KNOXV SUNNY 72 72 100 CALM 30.03R  
GATLINBURG PTSUNNY 72 70 94 CALM 30.03R  
MORRISTOWN CLOUDY 70 70 100 E5 30.04S FOG  
JACKSBORO FOG 66 66 100 CALM 30.08R VSB 0  

 
 
TNZ083-085-099-181300-  
SOUTHEAST TENNESSEE  
 
CITY SKY/WX TMP DP RH WIND PRES REMARKS
 
CHATTANOOGA PTSUNNY 74 70 87 N3 30.01R  
DAYTON SUNNY 73 73 100 CALM 30.01R FOG  

 
 
SKY/WX REPORTED AS FAIR MEANS FEW OR NO CLOUDS BELOW  
12 THOUSAND FEET.  
 
 
 
CLICK HERE TO GO TO PREVIOUS BULLETINS.

The Nexlab TN Page Main Text Page